sat.trackr.live / text

‹ back to catalog

ONEWEB-0422

NORAD 51626 · 2022-012E

PAYLOAD ACTIVE UNKNOWN

§ Identity

Operator
Country
UK
Launch date
2022-02-10
Launch site
FRGUI
Launch vehicle
Mass (kg)
RCS (m²)

Purposes: comms

External: N2YO · Heavens-Above · Gunter

§ Orbital elements

Epoch: 2026-05-25T03:25:38.969760Z

Period
109.29 min
Inclination
87.9160°
Eccentricity
0.0001656
Mean motion
13.17649495 rev/d
Perigee alt
1,192.5 km
Apogee alt
1,195.0 km
Semi-major
7,571.8 km
B*
3.6471e-4
RAAN
10.4394°
Arg perigee
62.9311°
Mean anomaly
297.1989°
Rev number
21,077

§ Raw data

ONEWEB-04221 51626U 22012E   26145.14281215  .00000154  00000+0  36471-3 0  99922 51626  87.9160  10.4394 0001656  62.9311 297.1989 13.17649495210775

JSON: /api/v1/satellites/51626 · /tle

For live sub-satellite position, see the globe view (requires WebGL).

§ Visibility from observer

Set your observer location to see the next 7 days of passes ≥ 10°. The values pass through the URL so the page stays shareable.

No JS? Fill the form by hand. The geolocation button needs JavaScript.